Mountain Home, Arkansas, United States (72653)
Lat: 36.34N, Lon: 92.39W
Wx Zone: ARZ005
Local Info
Past Weather Observations for Saturday, August 16, 2014

NOTE: This archive is for the closest National Weather Service station to Mountain Home. Information may differ from the station used for current weather conditions.

Click here for Long-term Archive

Time Weather Temperature Dewpoint Humidity Pressure Winds Precip Visibility
23:53
Clear
79°F / 26°C 72°F / 22°C 79% 29.89 in
(1012 mb)
Calm - 9SM
22:53
Clear
79°F / 26°C 72°F / 22°C 79% 29.92 in
(1013 mb)
SW 4.6 mph
(SW 7 kph)
- 9SM
21:53
Mostly Cloudy
81°F / 27°C 72°F / 22°C 74% 29.89 in
(1012 mb)
SW 5.8 mph
(SW 9 kph)
- 9SM
20:53
Partly Cloudy
79°F / 26°C 73°F / 23°C 84% 29.89 in
(1012 mb)
SSE 4.6 mph
(SSE 7 kph)
- 9SM
19:53
Partly Cloudy
81°F / 27°C 72°F / 22°C 74% 29.86 in
(1011 mb)
SSE 3.5 mph
(SSE 6 kph)
- 9SM
18:53
Partly Cloudy
82°F / 28°C 72°F / 22°C 70% 29.89 in
(1012 mb)
SW 4.6 mph
(SW 7 kph)
- 8SM
17:53
Partly Cloudy
86°F / 30°C 72°F / 22°C 62% 29.86 in
(1011 mb)
SSW 5.8 mph
(SSW 9 kph)
- 8SM
16:53
Clear
88°F / 31°C 70°F / 21°C 55% 29.89 in
(1012 mb)
SW 8.1 mph
(SW 13 kph)
- 9SM
15:53
Clear
90°F / 32°C 70°F / 21°C 52% 29.89 in
(1012 mb)
SW 11.5 mph
(SW 19 kph)
- 9SM
14:53
Clear
90°F / 32°C 70°F / 21°C 52% 29.89 in
(1012 mb)
SW 8.1 mph
(SW 13 kph)
- 8SM
13:53
Clear
91°F / 33°C 70°F / 21°C 49% 29.89 in
(1012 mb)
S 9.2 mph
(S 15 kph)
- 8SM
12:53
Partly Cloudy
88°F / 31°C 70°F / 21°C 55% 29.92 in
(1013 mb)
Variable 6.9 mph
(Variable 11 kph)
- 8SM
11:53
Mostly Cloudy
84°F / 29°C 68°F / 20°C 58% 29.95 in
(1014 mb)
SW 8.1 mph
(SW 13 kph)
- 8SM
10:53
Partly Cloudy
82°F / 28°C 66°F / 19°C 58% 29.95 in
(1014 mb)
SSE 11.5 mph
(SSE 19 kph)
- 9SM
09:53
Partly Cloudy
79°F / 26°C 66°F / 19°C 65% 29.98 in
(1015 mb)
S 6.9 mph
(S 11 kph)
- 9SM
08:53
Clear
77°F / 25°C 66°F / 19°C 69% 29.98 in
(1015 mb)
SSE 5.8 mph
(SSE 9 kph)
- 8SM
07:53
Clear
73°F / 23°C 66°F / 19°C 78% 29.98 in
(1015 mb)
SE 3.5 mph
(SE 6 kph)
- 8SM
06:53
Clear
70°F / 21°C 66°F / 19°C 88% 29.98 in
(1015 mb)
Calm - 7SM
05:53
Clear
70°F / 21°C 64°F / 18°C 83% 29.98 in
(1015 mb)
SSE 3.5 mph
(SSE 6 kph)
- 8SM
04:53
Clear
68°F / 20°C 64°F / 18°C 88% 29.95 in
(1014 mb)
Calm - 8SM
03:53
Clear
70°F / 21°C 64°F / 18°C 83% 29.95 in
(1014 mb)
Calm - 8SM
02:53
Clear
70°F / 21°C 64°F / 18°C 83% 29.95 in
(1014 mb)
SE 3.5 mph
(SE 6 kph)
- 8SM
01:53
Clear
70°F / 21°C 64°F / 18°C 83% 29.95 in
(1014 mb)
S 3.5 mph
(S 6 kph)
- 8SM
00:53
Clear
72°F / 22°C 64°F / 18°C 78% 29.95 in
(1014 mb)
SSE 5.8 mph
(SSE 9 kph)
- 8SM
Time Weather Temperature Dewpoint Humidity Pressure Winds Precip Visibility


Weather for websites

WeatherForYou.com, LLC is not responsible for any damages or problems caused by this service. Current weather conditions are obtained from the closest station including government and personal stations which may have varying degrees of accuracy. Weather forecasts are derived from the NOAA NDFD. Like all things, this site belongs to Jesus Christ... He just trusts me to maintain it. If you have any questions or comments email webmaster@weatherforyou.com

Copyright © 2014, WeatherForYou.com LLC. All rights reserved.